Regional Weather Roundup
Issued by NWS Spokane, WA

Home | Current Version | Previous Version | Text Only | Print | Product List | Glossary On
Versions: 1 2 3 4 5 6 7 8 9 10 11 12 13 14 15 16 17 18 19 20 21 22 23 24 25 26 27 28 29 30 31 32 33 34 35 36 37 38 39 40 41 42 43 44 45 46 47 48 49 50
491
NZUS01 KOTX 251005
RWROTX

Eastern Washington/Northern Idaho Roundup
National Weather Service, Spokane WA
300 AM PDT THU MAY 25 2017

Note: "fair" indicated few or no clouds below 12,000 feet with no
significant weather and/or obstructions to visibility.

...Northeast Washington and Northern Idaho Panhandle...

CITY           SKY/WX    TMP DP  RH WIND       PRES   REMARKS
Spokane Intl   MOCLDY    47  37  68 SW5       29.76R
Spokane Downto MOCLDY    48  42  80 CALM      29.76R
Coeur d Alene  CLOUDY    47  39  74 CALM      29.76S
Deer Park      MOCLDY    42  38  85 NE3       29.76S
Sandpoint      CLOUDY    45  37  76 NE5       29.76S
Bonners Ferry  CLOUDY    45  37  76 CALM      29.77S

...Southeast Washington and southern Idaho Panhandle...

CITY           SKY/WX    TMP DP  RH WIND       PRES   REMARKS
Walla Walla    PTCLDY    51  39  63 S10       29.80S
Pullman/Moscow MOCLDY    44  37  76 W5        29.77R
Lewiston       PTCLDY    51  36  56 W7        29.76R
Lowell           N/A     46  39  76 N3        29.78R
Grangeville    FAIR      41  34  75 S6        29.75S

...Columbia Basin...

CITY           SKY/WX    TMP DP  RH WIND       PRES   REMARKS
Ephrata        CLOUDY    55  32  41 NW12      29.76F
Moses Lake     CLOUDY    51  35  54 CALM      29.77F
Pasco          PTCLDY    54  36  50 S7        29.80R
Richland       MOSUNNY   50  38  64 SW5       29.79F
Hermiston      PTCLDY    49  42  77 SW8       29.81R
Pendleton      PTCLDY    48  39  71 CALM      29.80S

...East Slopes Cascades...

CITY           SKY/WX    TMP DP  RH WIND       PRES   REMARKS
The Dalles     CLEAR     53  44  71 NW13      29.84S
Yakima         CLEAR     53  36  52 CALM      29.82S
Ellensburg     CLEAR     47  36  65 NW14      29.81F
Stampede Pass  MOCLDY    35  34  96 SW6       29.86F FOG
Wenatchee      PTCLDY    50  36  58 NW14      29.79F
Omak           MOCLDY    46  38  73 NW6       29.77F
Sunnyside      MOSUNNY   44  37  77 NE3       29.81S

...Southern British Columbia...

CITY           SKY/WX    TMP DP  RH WIND       PRES   REMARKS

...Western Montana...

CITY           SKY/WX    TMP DP  RH WIND       PRES   REMARKS
Kalispell      CLOUDY    43  42  97 N3        29.73R
Missoula       MOCLDY    46  34  62 W3        29.74R

...Neighboring Cities...

CITY           SKY/WX    TMP DP  RH WIND       PRES   REMARKS
Seattle        CLEAR     50  44  80 CALM      29.92R
Portland       PTCLDY    51  43  74 CALM      29.92S
Boise          CLEAR     46  30  53 NW7       29.73R
Great Falls    LGT RAIN  41  37  86 SW18      29.59S



USA.gov is the U.S. government's official web portal to all federal, state and local government web resources and services.